Waarnemingen

Advertentie
Mijn weer
Laupheim, Duitsland (10837): temperatuur & dauwpunt: 20.05.2017 16:00:00 - 26.05.2017 16:00:00 (CEST)Laupheim, Duitsland (10837): windsnelheid: 20.05.2017 16:00:00 - 26.05.2017 16:00:00 (CEST)Laupheim, Duitsland (10837): windrichting: 20.05.2017 16:00:00 - 26.05.2017 16:00:00 (CEST)Laupheim, Duitsland (10837): luchtdruk: 20.05.2017 16:00:00 - 26.05.2017 16:00:00 (CEST)Laupheim, Duitsland (10837): zicht: 20.05.2017 16:00:00 - 26.05.2017 16:00:00 (CEST)
Datum & Tijd tt [°C] td [°C] ff [km/u] ff [kn] dd ppp [hPa] vv [km]
26.05.2017 16:00:00 21,9 10,4 18 10 ONO 1017,5 40
26.05.2017 15:00:00 22,1 7,9 14 8 ONO 1018,2 40
26.05.2017 14:00:00 21,3 7,4 14 8 ONO 1019,0 40
26.05.2017 13:00:00 20,6 8,6 18 10 NO 1019,4 40
26.05.2017 12:00:00 19,5 8,2 14 8 O 1019,9 40
26.05.2017 11:00:00 18,7 8,2 18 10 O 1020,3 40
26.05.2017 10:00:00 17,4 8,4 14 8 NO 1020,6 30
26.05.2017 09:00:00 15,6 8,8 7 4 NNO 1020,9 25
26.05.2017 08:00:00 12,6 9,1 11 6 NO 1021,4 25
26.05.2017 07:00:00 9,7 7,1 7 4 NO 1021,8 25
26.05.2017 06:00:00 8,7 6,9 4 2 NO 1022,1 25
26.05.2017 05:00:00 8,5 6,7 7 4 O 1022,1 25
26.05.2017 04:00:00 8,6 6,9 0 0 N 1022,2 25
26.05.2017 03:00:00 9,4 7,3 0 0 N 1021,8 25
26.05.2017 02:00:00 10,2 7,0 0 0 N 1022,0 25
26.05.2017 01:00:00 11,9 7,3 4 2 O 1021,9 25
26.05.2017 00:00:00 13,0 7,2 7 4 O 1021,9 25
25.05.2017 23:00:00 13,9 7,2 7 4 O 1021,9 30
25.05.2017 22:00:00 14,8 7,3 4 2 O 1021,3 35
25.05.2017 21:00:00 16,1 8,0 7 4 ONO 1020,6 35
25.05.2017 20:00:00 17,6 7,5 14 8 ONO 1020,1 35
25.05.2017 19:00:00 18,1 7,3 11 6 NO 1020,1 40
25.05.2017 18:00:00 19,1 7,1 14 8 ONO 1020,1 40
25.05.2017 17:00:00 18,6 7,2 18 10 NO 1020,2 40
25.05.2017 16:00:00 18,9 7,9 14 8 NO 1020,3 40
25.05.2017 15:00:00 18,2 7,8 18 10 NO 1020,7 30
25.05.2017 14:00:00 18,7 7,6 11 6 NO 1020,9 30
25.05.2017 13:00:00 17,9 7,2 11 6 NO 1021,3 25
25.05.2017 12:00:00 17,3 7,1 7 4 ONO 1021,8 20
25.05.2017 11:00:00 16,9 7,9 7 4 NO 1022,0 18
25.05.2017 10:00:00 16,0 10,7 4 2 NO 1022,1 9
25.05.2017 09:00:00 14,1 11,7 7 4 ONO 1022,6 8
25.05.2017 08:00:00 13,3 12,0 7 4 NO 1022,5 6
25.05.2017 07:00:00 12,5 11,6 4 2 NNW 1022,7 6
25.05.2017 06:00:00 12,0 11,2 0 0 N 1022,7 6
25.05.2017 05:00:00 12,4 11,4 0 0 N 1022,6 6
25.05.2017 04:00:00 12,5 11,3 4 2 N 1022,8 8
25.05.2017 03:00:00 12,5 11,6 0 0 N 1022,9 20
25.05.2017 02:00:00 13,3 11,8 4 2 ZZW 1023,0 20
25.05.2017 01:00:00 13,5 12,0 4 2 ZZW 1023,3 20
25.05.2017 00:00:00 13,7 11,8 7 4 O 1023,4 20
24.05.2017 23:00:00 13,8 11,7 11 6 NO 1023,3 20
24.05.2017 22:00:00 16,1 9,6 4 2 NNO 1022,4 30
24.05.2017 21:00:00 16,9 9,2 7 4 NNW 1022,0 30
24.05.2017 20:00:00 17,6 8,7 7 4 NNW 1021,8 35
24.05.2017 19:00:00 18,1 8,4 11 6 NNW 1021,4 35
24.05.2017 18:00:00 18,6 8,6 11 6 NW 1021,5 35
24.05.2017 17:00:00 18,4 8,1 11 6 NNW 1021,8 40
24.05.2017 16:00:00 18,8 7,7 11 6 N 1021,8 40
24.05.2017 15:00:00 18,3 5,8 7 4 N 1022,2 40
24.05.2017 14:00:00 18,1 5,2 11 6 NW 1022,3 40
24.05.2017 13:00:00 18,4 5,7 11 6 NNW 1022,8 40
24.05.2017 12:00:00 17,1 4,2 11 6 NW 1023,0 40
24.05.2017 11:00:00 16,2 6,7 11 6 WZW 1023,6 40
24.05.2017 10:00:00 15,1 5,4 11 6 WNW 1023,8 40
24.05.2017 09:00:00 14,0 5,8 11 6 NNW 1023,8 40
24.05.2017 08:00:00 13,6 6,2 11 6 WNW 1023,5 40
24.05.2017 07:00:00 13,5 6,4 11 6 NNW 1023,0 40
24.05.2017 06:00:00 13,7 7,8 11 6 NW 1022,3 25
24.05.2017 05:00:00 14,1 10,0 7 4 WNW 1021,9 20
24.05.2017 04:00:00 14,7 10,3 11 6 W 1021,3 20
24.05.2017 03:00:00 15,4 10,5 7 4 W 1021,2 20
24.05.2017 02:00:00 16,2 10,6 11 6 WZW 1020,7 20
24.05.2017 01:00:00 16,9 10,4 11 6 W 1020,4 20
24.05.2017 00:00:00 17,4 10,0 7 4 W 1020,1 25
23.05.2017 23:00:00 18,4 9,8 7 4 W 1019,7 25
23.05.2017 22:00:00 19,3 9,3 11 6 W 1019,1 30
23.05.2017 21:00:00 20,2 9,2 11 6 WNW 1018,2 35
23.05.2017 20:00:00 21,4 9,2 7 4 WNW 1017,6 40
23.05.2017 19:00:00 22,5 7,8 7 4 NW 1016,9 40
23.05.2017 18:00:00 23,0 6,5 18 10 WNW 1016,9 30
23.05.2017 17:00:00 23,6 6,6 18 10 W 1016,6 30
23.05.2017 16:00:00 23,4 7,6 18 10 WNW 1016,3 30
23.05.2017 15:00:00 23,6 6,1 14 8 WNW 1016,4 30
23.05.2017 14:00:00 23,3 8,1 18 10 W 1016,5 30
23.05.2017 13:00:00 23,2 10,5 18 10 W 1016,7 30
23.05.2017 12:00:00 20,8 11,1 14 8 WZW 1017,7 30
23.05.2017 11:00:00 20,3 11,2 11 6 W 1018,0 25
23.05.2017 10:00:00 18,6 11,7 14 8 WZW 1018,2 20
23.05.2017 09:00:00 15,8 11,6 7 4 WZW 1018,8 20
23.05.2017 08:00:00 13,0 10,0 7 4 W 1019,0 20
23.05.2017 07:00:00 11,0 9,1 4 2 ZW 1019,0 20
23.05.2017 06:00:00 10,2 8,7 7 4 ZW 1018,8 20
23.05.2017 05:00:00 10,6 8,9 7 4 ZW 1018,6 20
23.05.2017 04:00:00 10,6 9,1 7 4 ZZW 1018,4 20
23.05.2017 03:00:00 11,5 9,6 4 2 WZW 1018,2 20
23.05.2017 02:00:00 11,9 9,5 4 2 Z 1018,0 20
23.05.2017 01:00:00 13,1 9,6 4 2 W 1018,0 20
23.05.2017 00:00:00 14,3 9,6 4 2 O 1017,5 25
22.05.2017 23:00:00 15,8 9,4 7 4 NO 1016,8 25
22.05.2017 22:00:00 16,5 9,8 11 6 ONO 1016,5 30
22.05.2017 21:00:00 18,3 10,0 7 4 NO 1015,6 35
22.05.2017 20:00:00 20,2 8,8 7 4 NNO 1015,0 35
22.05.2017 19:00:00 21,5 9,1 7 4 NO 1014,7 35
22.05.2017 18:00:00 21,9 8,7 7 4 N 1014,9 35
22.05.2017 17:00:00 21,6 9,0 4 2 N 1015,4 35
22.05.2017 16:00:00 21,2 8,8 11 6 NW 1015,9 35
22.05.2017 15:00:00 19,9 8,5 11 6 W 1016,6 35
22.05.2017 14:00:00 19,5 9,9 11 6 WZW 1017,1 35
22.05.2017 13:00:00 18,4 9,3 4 2 NNO 1017,7 35
22.05.2017 12:00:00 17,0 10,0 7 4 N 1018,3 35
22.05.2017 11:00:00 15,7 9,1 4 2 NNW 1019,0 25
22.05.2017 10:00:00 14,1 8,9 7 4 ONO 1019,5 20
22.05.2017 09:00:00 13,0 8,4 7 4 O 1019,8 20
22.05.2017 08:00:00 10,8 8,1 7 4 ONO 1020,4 20
22.05.2017 07:00:00 9,0 7,2 7 4 ONO 1020,6 20
22.05.2017 06:00:00 7,6 6,3 11 6 NO 1021,0 18
22.05.2017 05:00:00 7,8 6,3 11 6 NO 1020,9 18
22.05.2017 04:00:00 8,6 6,8 7 4 NNO 1021,2 20
22.05.2017 03:00:00 9,0 6,8 7 4 NO 1021,5 20
22.05.2017 02:00:00 9,2 6,6 7 4 N 1022,1 20
22.05.2017 01:00:00 10,2 6,6 7 4 NO 1022,2 25
22.05.2017 00:00:00 11,0 6,8 7 4 NO 1022,5 25
21.05.2017 23:00:00 11,5 7,2 11 6 NO 1022,8 25
21.05.2017 22:00:00 13,4 7,6 11 6 ONO 1022,4 30
21.05.2017 21:00:00 13,6 7,1 11 6 ONO 1022,2 40
21.05.2017 20:00:00 16,6 6,3 18 10 ONO 1021,6 40
21.05.2017 19:00:00 16,7 6,0 18 10 ONO 1021,8 40
21.05.2017 18:00:00 17,7 6,6 22 12 ONO 1021,9 40
21.05.2017 17:00:00 17,0 5,9 22 12 O 1022,8 40
21.05.2017 16:00:00 16,5 6,5 18 10 NO 1023,7 40
21.05.2017 15:00:00 16,6 5,8 18 10 ONO 1024,0 40
21.05.2017 14:00:00 16,8 5,7 18 10 ONO 1024,4 40
21.05.2017 13:00:00 15,6 5,3 18 10 NO 1025,3 40
21.05.2017 12:00:00 15,7 6,5 14 8 ONO 1025,7 40
21.05.2017 11:00:00 14,2 5,4 18 10 ONO 1026,4 40
21.05.2017 10:00:00 13,1 5,9 14 8 NO 1026,7 30
21.05.2017 09:00:00 11,2 6,8 11 6 ONO 1027,3 25
21.05.2017 08:00:00 8,5 5,7 4 2 ONO 1028,2 25
21.05.2017 07:00:00 5,8 4,5 4 2 NNW 1028,7 25
21.05.2017 06:00:00 4,7 4,0 0 0 N 1028,5 25
21.05.2017 05:00:00 5,2 4,3 4 2 Z 1028,5 25
21.05.2017 04:00:00 5,9 4,9 4 2 ZZW 1028,2 25
21.05.2017 03:00:00 6,5 5,3 4 2 ZZW 1028,1 25
21.05.2017 02:00:00 7,1 5,5 4 2 ZW 1028,0 25
21.05.2017 01:00:00 7,7 5,4 4 2 N 1027,9 25
21.05.2017 00:00:00 8,6 5,7 4 2 NO 1027,3 25
20.05.2017 23:00:00 10,2 5,8 4 2 ONO 1026,8 30
20.05.2017 22:00:00 11,2 5,6 4 2 N 1026,1 30
20.05.2017 21:00:00 12,7 6,0 7 4 N 1025,0 30
20.05.2017 20:00:00 13,5 6,6 7 4 NNO 1024,2 30
20.05.2017 19:00:00 14,0 5,6 7 4 N 1023,4 30
20.05.2017 18:00:00 14,6 5,2 7 4 NNO 1023,1 30
20.05.2017 17:00:00 14,8 5,0 7 4 NNW 1022,6 30
20.05.2017 16:00:00 14,7 5,1 7 4 WNW 1022,3 30

tt = temperatuur
td = dauwpunt
ff = windsnelheid
dd = windrichting
ppp = luchtdruk
vv = zicht

Weerstations in de omgeving